TimeEDT,TemperatureF,Dew PointF,Humidity,Sea Level PressureIn,VisibilityMPH,Wind Direction,Wind SpeedMPH,Gust SpeedMPH,PrecipitationIn,Events,Conditions,WindDirDegrees,DateUTC
12:58 AM,72.9,72.9,100,29.95,10.0,Calm,Calm,-,N/A,,Overcast,0,2013-07-13 04:58:00
1:45 AM,73.4,73.4,100,29.93,10.0,Calm,Calm,-,N/A,,Light Drizzle,0,2013-07-13 05:45:00
1:58 AM,73.0,73.0,100,29.94,10.0,North,2.3,-,0.00,,Light Drizzle,360,2013-07-13 05:58:00
2:32 AM,71.6,71.6,100,29.93,10.0,NNE,3.5,-,N/A,,Clear,20,2013-07-13 06:32:00
2:47 AM,71.6,71.6,100,29.94,10.0,Calm,Calm,-,N/A,,Mostly Cloudy,0,2013-07-13 06:47:00
2:58 AM,72.1,72.1,100,29.95,10.0,NE,2.3,-,0.00,,Mostly Cloudy,50,2013-07-13 06:58:00
3:08 AM,71.6,71.6,100,29.93,10.0,ESE,3.5,-,N/A,,Scattered Clouds,110,2013-07-13 07:08:00
3:42 AM,71.6,71.6,100,29.93,10.0,NNE,3.5,-,N/A,Rain,Light Rain,30,2013-07-13 07:42:00
3:58 AM,72.0,72.0,100,29.94,10.0,North,1.2,-,0.00,Rain,Light Rain,360,2013-07-13 07:58:00
4:05 AM,71.6,71.6,100,29.93,10.0,NNE,1.2,-,N/A,,Partly Cloudy,20,2013-07-13 08:05:00
4:14 AM,71.6,71.6,100,29.92,10.0,Calm,Calm,-,N/A,,Light Drizzle,0,2013-07-13 08:14:00
4:21 AM,71.6,71.6,100,29.93,10.0,Calm,Calm,-,N/A,,Partly Cloudy,0,2013-07-13 08:21:00
4:22 AM,71.6,71.6,100,29.93,10.0,Calm,Calm,-,N/A,,Light Drizzle,0,2013-07-13 08:22:00
4:37 AM,71.6,71.6,100,29.93,10.0,ENE,2.3,-,N/A,Rain,Light Rain,70,2013-07-13 08:37:00
4:58 AM,72.3,72.3,100,29.94,10.0,Calm,Calm,-,0.01,Rain,Light Rain,0,2013-07-13 08:58:00
5:13 AM,71.6,71.6,100,29.93,10.0,ENE,2.3,-,N/A,,Light Drizzle,60,2013-07-13 09:13:00
5:32 AM,73.4,73.4,100,29.93,10.0,ENE,2.3,-,N/A,,Partly Cloudy,70,2013-07-13 09:32:00
5:58 AM,72.5,72.5,100,29.94,10.0,NE,1.2,-,0.00,,Mostly Cloudy,40,2013-07-13 09:58:00
6:58 AM,72.9,72.9,100,29.94,10.0,NE,2.3,-,N/A,,Overcast,40,2013-07-13 10:58:00
7:23 AM,73.4,73.4,100,29.95,10.0,NE,2.3,-,N/A,,Overcast,50,2013-07-13 11:23:00
7:33 AM,73.4,73.4,100,29.95,10.0,NNE,4.6,-,N/A,,Overcast,30,2013-07-13 11:33:00
7:58 AM,73.6,73.6,100,29.96,10.0,ENE,2.3,-,N/A,,Mostly Cloudy,60,2013-07-13 11:58:00
8:13 AM,73.4,73.4,100,29.95,10.0,NNE,2.3,-,N/A,,Overcast,30,2013-07-13 12:13:00
8:38 AM,73.4,73.4,100,29.97,10.0,ENE,3.5,-,N/A,,Overcast,70,2013-07-13 12:38:00
8:58 AM,74.5,74.5,100,29.98,10.0,ENE,3.5,-,N/A,,Overcast,60,2013-07-13 12:58:00
9:26 AM,75.2,75.2,100,29.99,10.0,East,2.3,-,N/A,,Light Drizzle,100,2013-07-13 13:26:00
9:43 AM,77.0,77.0,100,30.00,10.0,ENE,2.3,-,N/A,,Mostly Cloudy,70,2013-07-13 13:43:00
9:58 AM,76.6,76.6,100,30.00,10.0,North,1.2,-,0.00,,Mostly Cloudy,10,2013-07-13 13:58:00
10:58 AM,81.3,76.8,86,30.00,10.0,Variable,4.6,-,N/A,,Mostly Cloudy,0,2013-07-13 14:58:00
11:43 AM,82.4,75.2,79,29.99,10.0,Calm,Calm,-,N/A,Rain,Light Rain,0,2013-07-13 15:43:00
11:47 AM,82.4,75.2,79,29.99,10.0,SE,2.3,-,N/A,Rain-Thunderstorm,Light Thunderstorms and Rain,130,2013-07-13 15:47:00
11:52 AM,82.4,75.2,79,29.99,10.0,SSW,5.8,-,N/A,Rain-Thunderstorm,Light Thunderstorms and Rain,200,2013-07-13 15:52:00
11:58 AM,81.1,76.6,86,30.00,5.0,South,4.6,-,0.01,Rain-Thunderstorm,Thunderstorms and Rain,170,2013-07-13 15:58:00
12:03 PM,78.8,77.0,94,29.99,2.5,South,6.9,-,N/A,Rain-Thunderstorm,Heavy Thunderstorms and Rain,180,2013-07-13 16:03:00
12:08 PM,78.8,77.0,94,30.00,1.8,South,10.4,-,N/A,Rain-Thunderstorm,Heavy Thunderstorms and Rain,180,2013-07-13 16:08:00
12:13 PM,77.0,77.0,100,30.01,1.2,SSE,11.5,-,N/A,Rain-Thunderstorm,Heavy Thunderstorms and Rain,160,2013-07-13 16:13:00
12:18 PM,75.2,75.2,100,30.02,1.0,SE,16.1,-,N/A,Rain-Thunderstorm,Heavy Thunderstorms and Rain,140,2013-07-13 16:18:00
12:21 PM,75.2,75.2,100,30.01,0.8,ESE,12.7,-,N/A,Rain-Thunderstorm,Heavy Thunderstorms and Rain,110,2013-07-13 16:21:00
12:26 PM,73.4,73.4,100,30.01,0.2,ESE,3.5,-,N/A,Fog-Rain-Thunderstorm,Heavy Thunderstorms and Rain,120,2013-07-13 16:26:00
12:36 PM,73.4,73.4,100,30.00,0.5,ESE,6.9,-,N/A,Fog-Rain-Thunderstorm,Heavy Thunderstorms and Rain,110,2013-07-13 16:36:00
12:41 PM,73.4,73.4,100,30.00,1.0,ESE,8.1,-,N/A,Rain-Thunderstorm,Heavy Thunderstorms and Rain,110,2013-07-13 16:41:00
12:46 PM,73.4,73.4,100,30.00,1.8,ESE,4.6,-,N/A,Rain-Thunderstorm,Heavy Thunderstorms and Rain,110,2013-07-13 16:46:00
12:51 PM,71.6,71.6,100,30.01,2.5,East,5.8,-,N/A,Rain-Thunderstorm,Heavy Thunderstorms and Rain,100,2013-07-13 16:51:00
12:58 PM,72.3,72.3,100,30.01,2.5,Calm,Calm,-,1.50,Rain-Thunderstorm,Heavy Thunderstorms and Rain,0,2013-07-13 16:58:00
1:03 PM,71.6,71.6,100,30.00,3.0,Variable,2.3,-,N/A,Rain-Thunderstorm,Heavy Thunderstorms and Rain,0,2013-07-13 17:03:00
1:26 PM,73.4,73.4,100,30.01,3.0,South,3.5,-,N/A,Rain,Heavy Rain,170,2013-07-13 17:26:00
1:31 PM,73.4,73.4,100,30.01,3.0,ESE,2.3,-,N/A,Rain,Rain,120,2013-07-13 17:31:00
1:58 PM,73.2,73.2,100,30.01,10.0,WSW,1.2,-,0.20,Rain,Light Rain,250,2013-07-13 17:58:00
2:39 PM,77.0,77.0,100,29.99,10.0,NW,5.8,-,N/A,,Scattered Clouds,320,2013-07-13 18:39:00
2:58 PM,78.8,78.1,98,30.00,10.0,NNW,6.9,-,0.01,,Mostly Cloudy,340,2013-07-13 18:58:00
3:13 PM,78.8,77.0,94,29.99,10.0,NNW,4.6,-,N/A,,Mostly Cloudy,330,2013-07-13 19:13:00
3:43 PM,80.6,77.0,89,29.98,10.0,North,9.2,-,N/A,,Overcast,360,2013-07-13 19:43:00
3:58 PM,80.6,77.0,89,29.99,10.0,North,9.2,-,N/A,,Mostly Cloudy,360,2013-07-13 19:58:00
4:23 PM,78.8,77.0,94,29.98,9.0,ENE,8.1,-,N/A,Rain,Light Rain,70,2013-07-13 20:23:00
4:28 PM,77.0,77.0,100,29.99,1.8,Calm,Calm,-,N/A,Rain,Heavy Rain,0,2013-07-13 20:28:00
4:33 PM,77.0,77.0,100,29.99,0.8,North,1.2,-,N/A,Rain,Heavy Rain,360,2013-07-13 20:33:00
4:38 PM,75.2,75.2,100,30.00,0.8,Calm,Calm,-,N/A,Rain,Heavy Rain,0,2013-07-13 20:38:00
4:41 PM,75.2,75.2,100,30.00,0.8,Calm,Calm,-,N/A,Rain-Thunderstorm,Heavy Thunderstorms and Rain,0,2013-07-13 20:41:00
4:46 PM,75.2,75.2,100,30.01,0.5,Calm,Calm,-,N/A,Fog-Rain-Thunderstorm,Heavy Thunderstorms and Rain,0,2013-07-13 20:46:00
4:56 PM,75.2,75.2,100,30.00,0.2,West,2.3,-,N/A,Fog-Rain-Thunderstorm,Heavy Rain,270,2013-07-13 20:56:00
4:58 PM,75.2,75.2,100,30.01,0.2,West,2.3,-,0.76,Fog-Rain-Thunderstorm,Heavy Rain,260,2013-07-13 20:58:00
4:59 PM,75.2,75.2,100,30.00,0.2,West,2.3,-,N/A,Fog-Rain-Thunderstorm,Heavy Thunderstorms and Rain,280,2013-07-13 20:59:00
5:04 PM,75.2,75.2,100,30.00,0.2,NW,3.5,-,N/A,Fog-Rain-Thunderstorm,Heavy Thunderstorms and Rain,310,2013-07-13 21:04:00
5:09 PM,75.2,75.2,100,30.01,0.8,Calm,Calm,-,N/A,Rain-Thunderstorm,Heavy Thunderstorms and Rain,0,2013-07-13 21:09:00
5:13 PM,75.2,75.2,100,30.00,1.0,SW,4.6,-,N/A,Rain,Heavy Rain,230,2013-07-13 21:13:00
5:14 PM,75.2,75.2,100,30.00,1.0,SW,5.8,-,N/A,Rain-Thunderstorm,Heavy Thunderstorms and Rain,230,2013-07-13 21:14:00
5:19 PM,75.2,75.2,100,30.00,1.0,Variable,4.6,-,N/A,Rain-Thunderstorm,Heavy Thunderstorms and Rain,0,2013-07-13 21:19:00
5:24 PM,75.2,75.2,100,30.00,2.0,NNW,1.2,-,N/A,Rain-Thunderstorm,Light Thunderstorms and Rain,330,2013-07-13 21:24:00
5:29 PM,75.2,75.2,100,30.00,7.0,NW,1.2,-,N/A,Rain-Thunderstorm,Light Thunderstorms and Rain,320,2013-07-13 21:29:00
5:39 PM,75.2,75.2,100,30.01,0.8,ENE,1.2,-,N/A,Rain-Thunderstorm,Heavy Thunderstorms and Rain,70,2013-07-13 21:39:00
5:42 PM,75.2,75.2,100,30.01,0.8,ESE,4.6,-,N/A,Rain,Heavy Rain,110,2013-07-13 21:42:00
5:58 PM,73.4,73.4,100,30.01,0.5,Calm,Calm,-,0.95,Fog-Rain,Heavy Rain,0,2013-07-13 21:58:00
6:03 PM,73.4,73.4,100,30.00,1.0,Calm,Calm,-,N/A,Rain,Heavy Rain,0,2013-07-13 22:03:00
6:08 PM,73.4,73.4,100,30.00,3.0,West,2.3,-,N/A,Rain,Light Rain,270,2013-07-13 22:08:00
6:13 PM,73.4,73.4,100,30.00,8.0,Calm,Calm,-,N/A,Rain,Light Rain,0,2013-07-13 22:13:00
6:21 PM,73.4,73.4,100,30.00,10.0,SW,4.6,-,N/A,,Mostly Cloudy,220,2013-07-13 22:21:00
6:31 PM,73.4,73.4,100,30.01,10.0,SSW,3.5,-,N/A,Rain,Light Rain,200,2013-07-13 22:31:00
6:51 PM,73.4,73.4,100,30.00,7.0,Calm,Calm,-,N/A,Rain,Light Rain,0,2013-07-13 22:51:00
6:58 PM,73.8,73.8,100,30.01,10.0,Calm,Calm,-,0.09,Rain,Light Rain,0,2013-07-13 22:58:00
7:00 PM,73.4,73.4,100,30.00,10.0,Calm,Calm,-,N/A,,Overcast,0,2013-07-13 23:00:00
7:10 PM,73.4,73.4,100,30.00,10.0,Calm,Calm,-,N/A,,Mostly Cloudy,0,2013-07-13 23:10:00
7:15 PM,75.2,75.2,100,30.00,10.0,Calm,Calm,-,N/A,,Overcast,0,2013-07-13 23:15:00
7:35 PM,75.2,75.2,100,29.99,10.0,Calm,Calm,-,N/A,,Scattered Clouds,0,2013-07-13 23:35:00
7:58 PM,74.8,74.8,100,30.00,10.0,NNE,3.5,-,0.00,,Clear,30,2013-07-13 23:58:00
9:58 PM,73.6,73.6,100,29.99,10.0,North,3.5,-,N/A,,Clear,10,2013-07-14 01:58:00
11:59 PM,73.4,73.4,100,30.04,10.0,Calm,Calm,-,N/A,,Mostly Cloudy,0,2013-07-14 03:59:00